Home > Weather > Roskilde > Past weeks

Flag for Denmark Past Weather in Roskilde, Denmark — Yesterday and Last 2 Weeks

Now
64 °F

Partly sunny.


Feels Like: 64 °F
Forecast: 56 / 68 °F
Wind: 8 mph from West

Location: Koebenhavn / Roskilde

Current Time: Jul 26, 2016 at 8:29:41 AM

Latest Report: Jul 26, 2016 at 7:50 AM


Visibility: N/A

Pressure: 30.07 "Hg

Humidity: 88%

Dew Point: 61 °F

Location of RoskildeLocation

Past Weather in Roskilde — Graph

°F

Roskilde Temperature Yesterday

Maximum temperature yesterday: 73 °F (at 3:50 PM)
Minimum temperature yesterday: 61 °F (at 2:20 AM)
Average temperature yesterday: 68 °F

High & Low Weather Summary for the Past Weeks

 TemperatureHumidityPressure
High81 °F (Jul 22, 4:50 PM)100% (Jul 11, 6:20 AM)30.15 "Hg (Jul 11, 6:20 AM)
Low48 °F (Jul 14, 3:20 AM)36% (Jul 22, 1:50 PM)29.62 "Hg (Jul 11, 6:20 AM)
Average64 °F79%30.00 "Hg
* Reported Jul 11 6:20 AM — Jul 26 6:50 AM, Roskilde, Weather by CustomWeather, © 2016

Note: Actual official high and low records may vary slightly from our data, if they occured in-between our weather recording intervals... More about our weather records

Advertising

Roskilde Weather History for the Previous 24 Hours

Scroll right to see more
 ConditionsComfort  
Time TempWeatherWind HumidityBarometerVisibility
6:50 AM
Tue, Jul 26
64 °FPartly sunny.5 mph94%30.04 "HgN/A
6:20 AM64 °FPartly sunny.3 mph94%30.04 "HgN/A
5:50 AM63 °FPassing clouds.3 mph94%30.04 "HgN/A
5:20 AM64 °FPassing clouds.5 mph94%30.04 "HgN/A
4:50 AM64 °FPartly cloudy.5 mph94%30.04 "HgN/A
4:20 AM64 °FPassing clouds.5 mph94%30.04 "HgN/A
3:50 AM64 °FPartly cloudy.5 mph100%30.04 "Hg5 mi
3:20 AM66 °FMostly cloudy.2 mph94%30.04 "Hg6 mi
2:50 AM66 °FPassing clouds.5 mph94%30.04 "HgN/A
2:20 AM64 °FPassing clouds.No wind100%30.04 "Hg4 mi
1:50 AM64 °FPartly cloudy.1 mph100%30.01 "Hg3 mi
1:20 AM66 °FPassing clouds.2 mph94%30.04 "Hg4 mi
12:50 AM66 °FPartly cloudy.2 mph94%30.04 "Hg4 mi
12:20 AM66 °FPassing clouds.5 mph94%30.04 "Hg4 mi
11:50 PM
Mon, Jul 25
66 °FPassing clouds.2 mph94%30.04 "Hg6 mi
11:20 PM66 °FPassing clouds.No wind94%30.04 "Hg6 mi
10:50 PM66 °FPassing clouds.3 mph94%30.04 "HgN/A
10:20 PM66 °FPassing clouds.7 mph94%30.04 "Hg5 mi
9:50 PM66 °FPartly sunny.8 mph94%30.04 "HgN/A
9:20 PM68 °FScattered clouds.8 mph88%30.01 "HgN/A
8:50 PM68 °FPartly sunny.2 mph94%30.01 "HgN/A
8:20 PM68 °FPartly sunny.6 mph88%30.04 "HgN/A
7:50 PM68 °FLight rain. Broken clouds.8 mph88%30.04 "HgN/A
7:20 PM70 °FPassing clouds.6 mph78%30.04 "HgN/A
6:50 PM70 °FPassing clouds.12 mph83%30.01 "HgN/A
6:20 PM70 °FMild.13 mph83%30.01 "HgN/A
5:50 PM72 °FMild.12 mph78%30.01 "HgN/A
5:20 PM72 °FPassing clouds.14 mph78%30.01 "HgN/A
4:50 PM72 °FMild.14 mph78%30.01 "HgN/A
4:20 PM72 °FPassing clouds.13 mph78%30.04 "HgN/A
3:50 PM73 °FPassing clouds.12 mph78%30.04 "HgN/A
3:20 PM72 °FScattered clouds.12 mph78%30.04 "HgN/A
2:50 PM72 °FPassing clouds.13 mph78%30.04 "HgN/A
2:20 PM70 °FPassing clouds.12 mph83%30.04 "HgN/A
1:50 PM72 °FMild.13 mph78%30.04 "HgN/A
1:20 PM72 °FPassing clouds.13 mph78%30.07 "HgN/A
12:50 PM72 °FPassing clouds.13 mph78%30.07 "HgN/A
12:20 PM70 °FScattered clouds.13 mph78%30.07 "HgN/A
11:50 AM70 °FMild.13 mph78%30.07 "HgN/A
11:20 AM72 °FPassing clouds.12 mph78%30.07 "HgN/A
10:50 AM72 °FMild.13 mph78%30.04 "HgN/A
10:20 AM72 °FMild.13 mph73%30.07 "HgN/A
9:50 AM72 °FMild.12 mph73%30.07 "HgN/A
9:20 AM70 °FMild.10 mph78%30.07 "HgN/A
8:50 AM70 °FPassing clouds.9 mph78%30.07 "HgN/A
8:20 AM68 °FPassing clouds.8 mph88%30.07 "HgN/A
Weather by CustomWeather, © 2016

See weather overviewHow to use our weather pages